Regional Weather Roundup
Issued by NWS

Home | Current Version | Previous Version | Graphics & Text | Print | Product List | Glossary On
Versions: 1 2 3 4 5 6 7 8 9 10 11 12 13 14 15 16 17 18 19 20 21 22 23 24 25 26 27 28 29 30 31 32 33 34 35 36 37 38 39 40 41 42 43 44 45 46 47 48 49 50
000
ASUS45 KCYS 221910
RWRWY

WYOMING REGIONAL WEATHER ROUNDUP
NATIONAL WEATHER SERVICE CHEYENNE WY
100 PM MDT FRI AUG 22 2014

NOTE:  "FAIR" INDICATES FEW OR NO CLOUDS BELOW 12,000 FEET
WITH NO SIGNIFICANT WEATHER AND/OR OBSTRUCTIONS TO VISIBILITY.

WYZ001-222000-
YELLOWSTONE NATIONAL PARK

CITY           SKY/WX    TMP DP  RH WIND       PRES   REMARKS
LK YELLOWSTONE   N/A     50  42  74 CALM      30.21F
W YELLOWSTONE  NOT AVBL

$$
WYZ002>013-054>058-071-098>099-222000-
NORTHERN WYOMING

CITY           SKY/WX    TMP DP  RH WIND       PRES   REMARKS
JACKSON        CLOUDY    48  46  93 SW8       30.19S
CODY           CLOUDY    61  52  72 E3        30.09F
GREYBULL       PTSUNNY   65  53  65 NW8       30.05S
WORLAND        PTSUNNY   71  51  49 VRB3      30.03F
SHERIDAN       CLOUDY    68  56  65 CALM      30.04F
BUFFALO        PTSUNNY   68  50  52 S8        30.08F
GILLETTE       PTSUNNY   75  52  44 E5        30.06F
HULETT         MOCLDY    72  55  56 MISG      30.08
NEWCASTLE      FAIR      73  52  46 SE6       30.07

$$
WYZ014>020-022>026-101>103-222000-
CENTRAL WYOMING

CITY           SKY/WX    TMP DP  RH WIND       PRES   REMARKS
BIG PINEY      CLOUDY    56  46  69 N18       30.19F
PINEDALE       CLOUDY    52  45  76 NW15      30.21F
DUBOIS         CLOUDY    54  39  58 NW13      30.18F
LANDER         PTSUNNY   69  50  50 N12       30.06F
RIVERTON       PTSUNNY   64  50  60 NW16      30.08F
CASPER         SUNNY     75  48  38 MISG      30.06F
DOUGLAS        MOSUNNY   75  50  41 SE14G20   30.08F

$$
WYZ021-027>030-104>119-222000-
SOUTHERN WYOMING

CITY           SKY/WX    TMP DP  RH WIND       PRES   REMARKS
EVANSTON       PTSUNNY   64  46  52 VRB3      30.14F
KEMMERER       CLOUDY    66  41  39 CALM      30.17F
FORT BRIDGER   MOCLDY    64  48  57 N5        30.18F
ROCK SPRINGS   MOSUNNY   72  42  34 VRB5      30.11F
DIXON          LGT RAIN  69  48  46 W6        30.17S
RAWLINS        PTSUNNY   74  43  32 S10       30.14F
SARATOGA       CLOUDY    70  41  35 MISG      30.17F
LARAMIE        CLOUDY    70  42  36 S9G17     30.19F
CHEYENNE         N/A    N/A N/A N/A MISG        N/A
TORRINGTON     CLOUDY    73  53  49 SE8       30.06F
PINE BLUFFS    CLOUDY    75  54  46 S9        30.12F

$$


USA.gov is the U.S. government's official web portal to all federal, state and local government web resources and services.